Weather History for Tanana, AK

Change the Weather History Date:

Tuesday, November 20, 2012

  Actual Average Record
Temperature  
Mean Temperature -8 °F -  
Max Temperature 1 °F 8 °F 32 °F (1970)
Min Temperature -17 °F -5 °F -40 °F (1973)
Degree Days  
Heating Degree Days 72    
Moisture  
Dew Point -14 °F    
Average Humidity 69    
Maximum Humidity 79    
Minimum Humidity 57    
Precipitation  
Precipitation 0.00 in - - ()
Snow  
Snow 0.00 in - - ()
Snow Depth 4.00 in    
Sea Level Pressure  
Sea Level Pressure 30.12 in    
Wind  
Wind Speed 4 mph (NNW)    
Max Wind Speed 8 mph    
Max Gust Speed 17 mph    
Visibility 10 miles    
Events      
Averages and records for this station are not official NWS values.
T = Trace of Precipitation, MM = Missing Value Source: NWS Daily Summary

Daily Weather History Graph

Daily Weather History Graph

Search for Another Location

Airport:

Trip Planner

Search our weather history database for the weather conditions in past years. The results will help you decide how hot, cold, wet, or windy it might be!

Date:

Astronomy

Nov. 20, 2012 Rise Set
Actual Time 10:07 AM AKST 3:40 PM AKST
Civil Twilight 8:58 AM AKST 4:48 PM AKST
Nautical Twilight 7:53 AM AKST 5:54 PM AKST
Astronomical Twilight 6:53 AM AKST 6:53 PM AKST
Moon 2:09 PM AKST (11/20) No Moon Set
Length of Visible Light 7h 49m
Length of Day
5h 33m
First Quarter, 53% of the Moon is Illuminated
Nov 20
First Quarter
Nov 28
Full
Dec 6
Last Quarter
Dec 12
New
Dec 19
First Quarter

Hourly Weather History & Observations

Time (AKST) Temp. Windchill Dew Point Humidity Pressure Visibility Wind Dir Wind Speed Gust Speed Precip Events Conditions
12:52 AM -0.0 °F -7.9 °F -11.9 °F 57% 30.16 in 10.0 mi SE 3.5 mph 17.3 mph N/A   Clear
1:52 AM -2.0 °F -15.4 °F -11.0 °F 66% 30.14 in 10.0 mi SE 6.9 mph - N/A   Overcast
2:52 AM 1.9 °F -11.8 °F -9.0 °F 60% 30.12 in 10.0 mi ESE 8.1 mph - N/A   Overcast
3:52 AM 1.9 °F -7.6 °F -9.9 °F 58% 30.13 in 10.0 mi East 4.6 mph - N/A   Overcast
4:52 AM 1.0 °F - -11.0 °F 57% 30.12 in 10.0 mi Calm Calm - N/A   Mostly Cloudy
5:52 AM -0.9 °F -8.9 °F -9.9 °F 66% 30.12 in 10.0 mi Variable 3.5 mph - N/A   Overcast
6:52 AM -0.9 °F -8.9 °F -9.9 °F 66% 30.12 in 10.0 mi North 3.5 mph - N/A   Mostly Cloudy
7:52 AM -6.0 °F -14.7 °F -13.0 °F 72% 30.12 in 10.0 mi North 3.5 mph - N/A   Mostly Cloudy
8:52 AM -4.0 °F - -11.9 °F 69% 30.11 in 10.0 mi Calm Calm - N/A   Mostly Cloudy
9:52 AM -2.9 °F - -11.9 °F 65% 30.11 in 10.0 mi Calm Calm - N/A   Mostly Cloudy
10:52 AM -7.1 °F -18.1 °F -13.0 °F 75% 30.11 in 10.0 mi NW 4.6 mph - N/A   Mostly Cloudy
11:52 AM -2.9 °F -11.2 °F -11.9 °F 65% 30.11 in 10.0 mi Variable 3.5 mph - N/A   Scattered Clouds
12:52 PM -2.0 °F - -11.0 °F 66% 30.10 in 10.0 mi Calm Calm - N/A   Partly Cloudy
1:52 PM -0.9 °F - -9.9 °F 66% 30.10 in 10.0 mi Calm Calm - N/A   Scattered Clouds
2:52 PM -2.0 °F -10.1 °F -9.9 °F 69% 30.10 in 10.0 mi WNW 3.5 mph - N/A   Scattered Clouds
3:52 PM -5.1 °F -13.6 °F -11.0 °F 76% 30.10 in 10.0 mi NNW 3.5 mph - N/A   Scattered Clouds
4:52 PM -6.0 °F - -11.9 °F 75% 30.11 in 10.0 mi Calm Calm - N/A   Overcast
5:52 PM -9.9 °F -24.9 °F -16.1 °F 74% 30.12 in 10.0 mi North 6.9 mph - N/A   Clear
6:52 PM -11.9 °F -23.8 °F -17.0 °F 78% 30.13 in 10.0 mi West 4.6 mph - N/A   Scattered Clouds
7:52 PM -14.1 °F -28.3 °F -18.9 °F 79% 30.14 in 10.0 mi North 5.8 mph - N/A   Scattered Clouds
8:52 PM -14.1 °F -26.3 °F -20.0 °F 75% 30.14 in 10.0 mi NW 4.6 mph - N/A   Scattered Clouds
9:52 PM -16.1 °F - -22.0 °F 74% 30.14 in 10.0 mi Calm Calm - N/A   Clear
10:52 PM -15.0 °F - -20.9 °F 75% 30.15 in 10.0 mi Calm Calm - N/A   Clear
11:52 PM -17.0 °F -29.7 °F -24.0 °F 70% 30.17 in 10.0 mi NW 4.6 mph - N/A   Clear